Year,Month,Day,Hour,Minute,Value (Times are PST for temperature in C)
2017,08,06,00,00,18.20
2017,08,06,00,01,18.10
2017,08,06,00,02,18.10
2017,08,06,00,03,18.10
2017,08,06,00,04,18.10
2017,08,06,00,05,18.10
2017,08,06,00,06,18.10
2017,08,06,00,07,18.20
2017,08,06,00,08,18.20
2017,08,06,00,09,18.30
2017,08,06,00,10,18.30
2017,08,06,00,11,18.30
2017,08,06,00,12,18.30
2017,08,06,00,13,18.30
2017,08,06,00,14,18.30
2017,08,06,00,15,18.30
2017,08,06,00,16,18.40
2017,08,06,00,17,18.40
2017,08,06,00,18,18.40
2017,08,06,00,19,18.40
2017,08,06,00,20,18.40
2017,08,06,00,21,18.40
2017,08,06,00,22,18.40
2017,08,06,00,23,18.40
2017,08,06,00,24,18.40
2017,08,06,00,25,18.40
2017,08,06,00,26,18.40
2017,08,06,00,27,18.40
2017,08,06,00,28,18.40
2017,08,06,00,29,18.30
2017,08,06,00,30,18.30
2017,08,06,00,31,18.30
2017,08,06,00,32,18.30
2017,08,06,00,33,18.30
2017,08,06,00,34,18.20
2017,08,06,00,35,18.20
2017,08,06,00,36,18.20
2017,08,06,00,37,18.10
2017,08,06,00,38,18.10
2017,08,06,00,39,18.10
2017,08,06,00,40,18.10
2017,08,06,00,41,18.00
2017,08,06,00,42,18.00
2017,08,06,00,43,18.00
2017,08,06,00,44,18.00
2017,08,06,00,45,18.00
2017,08,06,00,46,18.00
2017,08,06,00,47,18.00
2017,08,06,00,48,18.00
2017,08,06,00,49,17.90
2017,08,06,00,50,17.90
2017,08,06,00,51,17.90
2017,08,06,00,52,17.80
2017,08,06,00,53,17.80
2017,08,06,00,54,17.70
2017,08,06,00,55,17.70
2017,08,06,00,56,17.60
2017,08,06,00,57,17.60
2017,08,06,00,58,17.60
2017,08,06,00,59,17.60
2017,08,06,01,00,17.60
2017,08,06,01,01,17.60
2017,08,06,01,02,17.60
2017,08,06,01,03,17.60
2017,08,06,01,04,17.60
2017,08,06,01,05,17.50
2017,08,06,01,06,17.50
2017,08,06,01,07,17.50
2017,08,06,01,08,17.50
2017,08,06,01,09,17.50
2017,08,06,01,10,17.40
2017,08,06,01,11,17.40
2017,08,06,01,12,17.50
2017,08,06,01,13,17.50
2017,08,06,01,14,17.50
2017,08,06,01,15,17.60
2017,08,06,01,16,17.60
2017,08,06,01,17,17.60
2017,08,06,01,18,17.60
2017,08,06,01,19,17.60
2017,08,06,01,20,17.60
2017,08,06,01,21,17.60
2017,08,06,01,22,17.60
2017,08,06,01,23,17.60
2017,08,06,01,24,17.50
2017,08,06,01,25,17.50
2017,08,06,01,26,17.50
2017,08,06,01,27,17.40
2017,08,06,01,28,17.40
2017,08,06,01,29,17.40
2017,08,06,01,30,17.40
2017,08,06,01,31,17.40
2017,08,06,01,32,17.30
2017,08,06,01,33,17.30
2017,08,06,01,34,17.30
2017,08,06,01,35,17.30
2017,08,06,01,36,17.30
2017,08,06,01,37,17.30
2017,08,06,01,38,17.30
2017,08,06,01,39,17.30
2017,08,06,01,40,17.30
2017,08,06,01,41,17.30
2017,08,06,01,42,17.30
2017,08,06,01,43,17.30
2017,08,06,01,44,17.30
2017,08,06,01,45,17.30
2017,08,06,01,46,17.30
2017,08,06,01,47,17.30
2017,08,06,01,48,17.30
2017,08,06,01,49,17.30
2017,08,06,01,50,17.30
2017,08,06,01,51,17.30
2017,08,06,01,52,17.30
2017,08,06,01,53,17.30
2017,08,06,01,54,17.20
2017,08,06,01,55,17.20
2017,08,06,01,56,17.20
2017,08,06,01,57,17.20
2017,08,06,01,58,17.20
2017,08,06,01,59,17.20
2017,08,06,02,00,17.20
2017,08,06,02,01,17.20
2017,08,06,02,02,17.20
2017,08,06,02,03,17.20
2017,08,06,02,04,17.20
2017,08,06,02,05,17.20
2017,08,06,02,06,17.30
2017,08,06,02,07,17.30
2017,08,06,02,08,17.20
2017,08,06,02,09,17.20
2017,08,06,02,10,17.20
2017,08,06,02,11,17.10
2017,08,06,02,12,17.10
2017,08,06,02,13,17.10
2017,08,06,02,14,17.10
2017,08,06,02,15,17.00
2017,08,06,02,16,17.00
2017,08,06,02,17,17.00
2017,08,06,02,18,17.00
2017,08,06,02,19,17.00
2017,08,06,02,20,17.00
2017,08,06,02,21,16.90
2017,08,06,02,22,16.90
2017,08,06,02,23,16.90
2017,08,06,02,24,16.80
2017,08,06,02,25,16.80
2017,08,06,02,26,16.80
2017,08,06,02,27,16.80
2017,08,06,02,28,16.80
2017,08,06,02,29,16.80
2017,08,06,02,30,16.80
2017,08,06,02,31,16.80
2017,08,06,02,32,16.80
2017,08,06,02,33,16.80
2017,08,06,02,34,16.80
2017,08,06,02,35,16.80
2017,08,06,02,36,16.70
2017,08,06,02,37,16.80
2017,08,06,02,38,16.80
2017,08,06,02,39,16.80
2017,08,06,02,40,16.80
2017,08,06,02,41,16.80
2017,08,06,02,42,16.80
2017,08,06,02,43,16.80
2017,08,06,02,44,16.80
2017,08,06,02,45,16.80
2017,08,06,02,46,16.80
2017,08,06,02,47,16.80
2017,08,06,02,48,16.70
2017,08,06,02,49,16.70
2017,08,06,02,50,16.70
2017,08,06,02,51,16.70
2017,08,06,02,52,16.70
2017,08,06,02,53,16.70
2017,08,06,02,54,16.80
2017,08,06,02,55,16.80
2017,08,06,02,56,16.80
2017,08,06,02,57,16.80
2017,08,06,02,58,16.90
2017,08,06,02,59,16.90
2017,08,06,03,00,17.00
2017,08,06,03,01,17.10
2017,08,06,03,02,17.20
2017,08,06,03,03,17.20
2017,08,06,03,04,17.30
2017,08,06,03,05,17.30
2017,08,06,03,06,17.20
2017,08,06,03,07,17.20
2017,08,06,03,08,17.20
2017,08,06,03,09,17.10
2017,08,06,03,10,17.00
2017,08,06,03,11,17.00
2017,08,06,03,12,16.90
2017,08,06,03,13,16.80
2017,08,06,03,14,16.70
2017,08,06,03,15,16.70
2017,08,06,03,16,16.60
2017,08,06,03,17,16.60
2017,08,06,03,18,16.60
2017,08,06,03,19,16.60
2017,08,06,03,20,16.50
2017,08,06,03,21,16.50
2017,08,06,03,22,16.40
2017,08,06,03,23,16.40
2017,08,06,03,24,16.40
2017,08,06,03,25,16.40
2017,08,06,03,26,16.30
2017,08,06,03,27,16.30
2017,08,06,03,28,16.30
2017,08,06,03,29,16.30
2017,08,06,03,30,16.30
2017,08,06,03,31,16.20
2017,08,06,03,32,16.20
2017,08,06,03,33,16.20
2017,08,06,03,34,16.20
2017,08,06,03,35,16.20
2017,08,06,03,36,16.20
2017,08,06,03,37,16.20
2017,08,06,03,38,16.10
2017,08,06,03,39,16.10
2017,08,06,03,40,16.20
2017,08,06,03,41,16.20
2017,08,06,03,42,16.20
2017,08,06,03,43,16.20
2017,08,06,03,44,16.20
2017,08,06,03,45,16.20
2017,08,06,03,46,16.20
2017,08,06,03,47,16.20
2017,08,06,03,48,16.20
2017,08,06,03,49,16.20
2017,08,06,03,50,16.10
2017,08,06,03,51,16.10
2017,08,06,03,52,16.10
2017,08,06,03,53,16.10
2017,08,06,03,54,16.10
2017,08,06,03,55,16.10
2017,08,06,03,56,16.10
2017,08,06,03,57,16.10
2017,08,06,03,58,16.10
2017,08,06,03,59,16.10
2017,08,06,04,00,16.10
2017,08,06,04,01,16.10
2017,08,06,04,02,16.10
2017,08,06,04,03,16.10
2017,08,06,04,04,16.10
2017,08,06,04,05,16.10
2017,08,06,04,06,16.10
2017,08,06,04,07,16.20
2017,08,06,04,08,16.20
2017,08,06,04,09,16.20
2017,08,06,04,10,16.20
2017,08,06,04,11,16.20
2017,08,06,04,12,16.30
2017,08,06,04,13,16.30
2017,08,06,04,14,16.30
2017,08,06,04,15,16.30
2017,08,06,04,16,16.30
2017,08,06,04,17,16.30
2017,08,06,04,18,16.30
2017,08,06,04,19,16.30
2017,08,06,04,20,16.20
2017,08,06,04,21,16.20
2017,08,06,04,22,16.20
2017,08,06,04,23,16.10
2017,08,06,04,24,16.10
2017,08,06,04,25,16.10
2017,08,06,04,26,16.10
2017,08,06,04,27,16.00
2017,08,06,04,28,16.00
2017,08,06,04,29,16.00
2017,08,06,04,30,16.00
2017,08,06,04,31,15.90
2017,08,06,04,32,15.90
2017,08,06,04,33,15.90
2017,08,06,04,34,15.90
2017,08,06,04,35,15.90
2017,08,06,04,36,15.90
2017,08,06,04,37,15.90
2017,08,06,04,38,15.90
2017,08,06,04,39,15.90
2017,08,06,04,40,15.90
2017,08,06,04,41,15.90
2017,08,06,04,42,15.90
2017,08,06,04,43,15.90
2017,08,06,04,44,15.90
2017,08,06,04,45,15.90
2017,08,06,04,46,16.00
2017,08,06,04,47,16.00
2017,08,06,04,48,15.90
2017,08,06,04,49,15.90
2017,08,06,04,50,15.90
2017,08,06,04,51,15.80
2017,08,06,04,52,15.80
2017,08,06,04,53,15.80
2017,08,06,04,54,15.70
2017,08,06,04,55,15.70
2017,08,06,04,56,15.70
2017,08,06,04,57,15.70
2017,08,06,04,58,15.70
2017,08,06,04,59,15.70
2017,08,06,05,00,15.70
2017,08,06,05,01,15.60
2017,08,06,05,02,15.60
2017,08,06,05,03,15.60
2017,08,06,05,04,15.60
2017,08,06,05,05,15.60
2017,08,06,05,06,15.60
2017,08,06,05,07,15.60
2017,08,06,05,08,15.60
2017,08,06,05,09,15.60
2017,08,06,05,10,15.50
2017,08,06,05,11,15.50
2017,08,06,05,12,15.50
2017,08,06,05,13,15.50
2017,08,06,05,14,15.50
2017,08,06,05,15,15.40
2017,08,06,05,16,15.40
2017,08,06,05,17,15.40
2017,08,06,05,18,15.40
2017,08,06,05,19,15.40
2017,08,06,05,20,15.40
2017,08,06,05,21,15.40
2017,08,06,05,22,15.40
2017,08,06,05,23,15.40
2017,08,06,05,24,15.40
2017,08,06,05,25,15.40
2017,08,06,05,26,15.40
2017,08,06,05,27,15.40
2017,08,06,05,28,15.40
2017,08,06,05,29,15.30
2017,08,06,05,30,15.30
2017,08,06,05,31,15.30
2017,08,06,05,32,15.30
2017,08,06,05,33,15.30
2017,08,06,05,34,15.30
2017,08,06,05,35,15.30
2017,08,06,05,36,15.30
2017,08,06,05,37,15.30
2017,08,06,05,38,15.30
2017,08,06,05,39,15.30
2017,08,06,05,40,15.30
2017,08,06,05,41,15.30
2017,08,06,05,42,15.30
2017,08,06,05,43,15.30
2017,08,06,05,44,15.30
2017,08,06,05,45,15.30
2017,08,06,05,46,15.30
2017,08,06,05,47,15.20
2017,08,06,05,48,15.20
2017,08,06,05,49,15.20
2017,08,06,05,50,15.20
2017,08,06,05,51,15.20
2017,08,06,05,52,15.20
2017,08,06,05,53,15.10
2017,08,06,05,54,15.10
2017,08,06,05,55,15.10
2017,08,06,05,56,15.10
2017,08,06,05,57,15.10
2017,08,06,05,58,15.10
2017,08,06,05,59,15.00
2017,08,06,06,00,15.00
2017,08,06,06,01,15.00
2017,08,06,06,02,15.10
2017,08,06,06,03,15.10
2017,08,06,06,04,15.10
2017,08,06,06,05,15.10
2017,08,06,06,06,15.10
2017,08,06,06,07,15.10
2017,08,06,06,08,15.10
2017,08,06,06,09,15.10
2017,08,06,06,10,15.10
2017,08,06,06,11,15.10
2017,08,06,06,12,15.10
2017,08,06,06,13,15.10
2017,08,06,06,14,15.10
2017,08,06,06,15,15.10
2017,08,06,06,16,15.00
2017,08,06,06,17,15.00
2017,08,06,06,18,14.90
2017,08,06,06,19,14.90
2017,08,06,06,20,14.90
2017,08,06,06,21,14.90
2017,08,06,06,22,14.80
2017,08,06,06,23,14.80
2017,08,06,06,24,14.80
2017,08,06,06,25,14.80
2017,08,06,06,26,14.80
2017,08,06,06,27,14.90
2017,08,06,06,28,14.90
2017,08,06,06,29,14.90
2017,08,06,06,30,15.00
2017,08,06,06,31,15.00
2017,08,06,06,32,15.00
2017,08,06,06,33,15.00
2017,08,06,06,34,15.10
2017,08,06,06,35,15.00
2017,08,06,06,36,15.00
2017,08,06,06,37,15.00
2017,08,06,06,38,15.00
2017,08,06,06,39,14.90
2017,08,06,06,40,14.90
2017,08,06,06,41,14.90
2017,08,06,06,42,14.90
2017,08,06,06,43,14.90
2017,08,06,06,44,14.90
2017,08,06,06,45,14.90
2017,08,06,06,46,14.90
2017,08,06,06,47,14.90
2017,08,06,06,48,14.90
2017,08,06,06,49,14.90
2017,08,06,06,50,14.80
2017,08,06,06,51,14.80
2017,08,06,06,52,14.80
2017,08,06,06,53,14.80
2017,08,06,06,54,14.80
2017,08,06,06,55,14.80
2017,08,06,06,56,14.80
2017,08,06,06,57,14.80
2017,08,06,06,58,14.80
2017,08,06,06,59,14.80
2017,08,06,07,00,14.80
2017,08,06,07,01,14.80
2017,08,06,07,02,14.80
2017,08,06,07,03,14.80
2017,08,06,07,04,14.80
2017,08,06,07,05,14.80
2017,08,06,07,06,14.80
2017,08,06,07,07,14.80
2017,08,06,07,08,14.80
2017,08,06,07,09,14.80
2017,08,06,07,10,14.80
2017,08,06,07,11,14.80
2017,08,06,07,12,14.80
2017,08,06,07,13,14.80
2017,08,06,07,14,14.80
2017,08,06,07,15,14.80
2017,08,06,07,16,14.80
2017,08,06,07,17,14.80
2017,08,06,07,18,14.80
2017,08,06,07,19,14.80
2017,08,06,07,20,14.80
2017,08,06,07,21,14.80
2017,08,06,07,22,14.80
2017,08,06,07,23,14.80
2017,08,06,07,24,14.90
2017,08,06,07,25,14.90
2017,08,06,07,26,14.90
2017,08,06,07,27,14.90
2017,08,06,07,28,15.00
2017,08,06,07,29,15.00
2017,08,06,07,30,15.10
2017,08,06,07,31,15.10
2017,08,06,07,32,15.10
2017,08,06,07,33,15.10
2017,08,06,07,34,15.20
2017,08,06,07,35,15.20
2017,08,06,07,36,15.20
2017,08,06,07,37,15.30
2017,08,06,07,38,15.30
2017,08,06,07,39,15.30
2017,08,06,07,40,15.40
2017,08,06,07,41,15.40
2017,08,06,07,42,15.50
2017,08,06,07,43,15.50
2017,08,06,07,44,15.60
2017,08,06,07,45,15.60
2017,08,06,07,46,15.70
2017,08,06,07,47,15.70
2017,08,06,07,48,15.80
2017,08,06,07,49,15.80
2017,08,06,07,50,15.80
2017,08,06,07,51,15.80
2017,08,06,07,52,15.90
2017,08,06,07,53,15.90
2017,08,06,07,54,16.00
2017,08,06,07,55,16.00
2017,08,06,07,56,16.10
2017,08,06,07,57,16.10
2017,08,06,07,58,16.20
2017,08,06,07,59,16.20
2017,08,06,08,00,16.30
2017,08,06,08,01,16.30
2017,08,06,08,02,16.40
2017,08,06,08,03,16.50
2017,08,06,08,04,16.60
2017,08,06,08,05,16.70
2017,08,06,08,06,16.70
2017,08,06,08,07,16.80
2017,08,06,08,08,16.90
2017,08,06,08,09,17.00
2017,08,06,08,10,17.00
2017,08,06,08,11,17.10
2017,08,06,08,12,17.20
2017,08,06,08,13,17.30
2017,08,06,08,14,17.30
2017,08,06,08,15,17.40
2017,08,06,08,16,17.40
2017,08,06,08,17,17.50
2017,08,06,08,18,17.50
2017,08,06,08,19,17.60
2017,08,06,08,20,17.60
2017,08,06,08,21,17.70
2017,08,06,08,22,17.80
2017,08,06,08,23,17.80
2017,08,06,08,24,17.80
2017,08,06,08,25,17.90
2017,08,06,08,26,18.00
2017,08,06,08,27,18.00
2017,08,06,08,28,18.10
2017,08,06,08,29,18.20
2017,08,06,08,30,18.20
2017,08,06,08,31,18.30
2017,08,06,08,32,18.30
2017,08,06,08,33,18.40
2017,08,06,08,34,18.50
2017,08,06,08,35,18.50
2017,08,06,08,36,18.60
2017,08,06,08,37,18.60
2017,08,06,08,38,18.70
2017,08,06,08,39,18.70
2017,08,06,08,40,18.70
2017,08,06,08,41,18.80
2017,08,06,08,42,18.80
2017,08,06,08,43,18.80
2017,08,06,08,44,18.90
2017,08,06,08,45,18.90
2017,08,06,08,46,19.00
2017,08,06,08,47,19.00
2017,08,06,08,48,19.10
2017,08,06,08,49,19.10
2017,08,06,08,50,19.10
2017,08,06,08,51,19.20
2017,08,06,08,52,19.20
2017,08,06,08,53,19.20
2017,08,06,08,54,19.20
2017,08,06,08,55,19.20
2017,08,06,08,56,19.20
2017,08,06,08,57,19.20
2017,08,06,08,58,19.30
2017,08,06,08,59,19.30
2017,08,06,09,00,19.30
2017,08,06,09,01,19.30
2017,08,06,09,02,19.30
2017,08,06,09,03,19.30
2017,08,06,09,04,19.40
2017,08,06,09,05,19.40
2017,08,06,09,06,19.40
2017,08,06,09,07,19.40
2017,08,06,09,08,19.40
2017,08,06,09,09,19.40
2017,08,06,09,10,19.40
2017,08,06,09,11,19.50
2017,08,06,09,12,19.50
2017,08,06,09,13,19.50
2017,08,06,09,14,19.50
2017,08,06,09,15,19.60
2017,08,06,09,16,19.60
2017,08,06,09,17,19.60
2017,08,06,09,18,19.60
2017,08,06,09,19,19.70
2017,08,06,09,20,19.70
2017,08,06,09,21,19.70
2017,08,06,09,22,19.70
2017,08,06,09,23,19.80
2017,08,06,09,24,19.80
2017,08,06,09,25,19.80
2017,08,06,09,26,19.80
2017,08,06,09,27,19.90
2017,08,06,09,28,19.90
2017,08,06,09,29,19.90
2017,08,06,09,30,19.90
2017,08,06,09,31,19.90
2017,08,06,09,32,20.00
2017,08,06,09,33,20.00
2017,08,06,09,34,20.00
2017,08,06,09,35,20.00
2017,08,06,09,36,20.00
2017,08,06,09,37,20.10
2017,08,06,09,38,20.10
2017,08,06,09,39,20.20
2017,08,06,09,40,20.20
2017,08,06,09,41,20.20
2017,08,06,09,42,20.30
2017,08,06,09,43,20.30
2017,08,06,09,44,20.30
2017,08,06,09,45,20.30
2017,08,06,09,46,20.40
2017,08,06,09,47,20.40
2017,08,06,09,48,20.40
2017,08,06,09,49,20.40
2017,08,06,09,50,20.40
2017,08,06,09,51,20.40
2017,08,06,09,52,20.40
2017,08,06,09,53,20.40
2017,08,06,09,54,20.40
2017,08,06,09,55,20.50
2017,08,06,09,56,20.50
2017,08,06,09,57,20.50
2017,08,06,09,58,20.50
2017,08,06,09,59,20.50
2017,08,06,10,00,20.50
2017,08,06,10,01,20.50
2017,08,06,10,02,20.50
2017,08,06,10,03,20.60
2017,08,06,10,04,20.70
2017,08,06,10,05,20.70
2017,08,06,10,06,20.80
2017,08,06,10,07,20.80
2017,08,06,10,08,20.80
2017,08,06,10,09,20.80
2017,08,06,10,10,20.90
2017,08,06,10,11,20.90
2017,08,06,10,12,20.90
2017,08,06,10,13,20.90
2017,08,06,10,14,21.00
2017,08,06,10,15,21.00
2017,08,06,10,16,21.00
2017,08,06,10,17,21.10
2017,08,06,10,18,21.10
2017,08,06,10,19,21.10
2017,08,06,10,20,21.00
2017,08,06,10,21,21.00
2017,08,06,10,22,20.90
2017,08,06,10,23,20.90
2017,08,06,10,24,21.00
2017,08,06,10,25,21.00
2017,08,06,10,26,21.10
2017,08,06,10,27,21.10
2017,08,06,10,28,21.20
2017,08,06,10,29,21.30
2017,08,06,10,30,21.30
2017,08,06,10,31,21.30
2017,08,06,10,32,21.30
2017,08,06,10,33,21.40
2017,08,06,10,34,21.40
2017,08,06,10,35,21.50
2017,08,06,10,36,21.60
2017,08,06,10,37,21.60
2017,08,06,10,38,21.70
2017,08,06,10,39,21.70
2017,08,06,10,40,21.70
2017,08,06,10,41,21.70
2017,08,06,10,42,21.70
2017,08,06,10,43,21.70
2017,08,06,10,44,21.80
2017,08,06,10,45,21.80
2017,08,06,10,46,21.80
2017,08,06,10,47,21.80
2017,08,06,10,48,21.80
2017,08,06,10,49,21.80
2017,08,06,10,50,21.90
2017,08,06,10,51,21.90
2017,08,06,10,52,21.90
2017,08,06,10,53,21.90
2017,08,06,10,54,21.90
2017,08,06,10,55,21.90
2017,08,06,10,56,21.90
2017,08,06,10,57,21.90
2017,08,06,10,58,22.00
2017,08,06,10,59,22.00
2017,08,06,11,00,22.10
2017,08,06,11,01,22.10
2017,08,06,11,02,22.10
2017,08,06,11,03,22.10
2017,08,06,11,04,22.20
2017,08,06,11,05,22.20
2017,08,06,11,06,22.20
2017,08,06,11,07,22.30
2017,08,06,11,08,22.40
2017,08,06,11,09,22.40
2017,08,06,11,10,22.40
2017,08,06,11,11,22.40
2017,08,06,11,12,22.40
2017,08,06,11,13,22.50
2017,08,06,11,14,22.50
2017,08,06,11,15,22.60
2017,08,06,11,16,22.60
2017,08,06,11,17,22.60
2017,08,06,11,18,22.60
2017,08,06,11,19,22.60
2017,08,06,11,20,22.60
2017,08,06,11,21,22.70
2017,08,06,11,22,22.70
2017,08,06,11,23,22.80
2017,08,06,11,24,22.80
2017,08,06,11,25,22.90
2017,08,06,11,26,22.90
2017,08,06,11,27,23.00
2017,08,06,11,28,23.00
2017,08,06,11,29,23.00
2017,08,06,11,30,23.00
2017,08,06,11,31,23.10
2017,08,06,11,32,23.10
2017,08,06,11,33,23.10
2017,08,06,11,34,23.10
2017,08,06,11,35,23.10
2017,08,06,11,36,23.20
2017,08,06,11,37,23.20
2017,08,06,11,38,23.20
2017,08,06,11,39,23.10
2017,08,06,11,40,23.10
2017,08,06,11,41,23.10
2017,08,06,11,42,23.20
2017,08,06,11,43,23.20
2017,08,06,11,44,23.20
2017,08,06,11,45,23.30
2017,08,06,11,46,23.30
2017,08,06,11,47,23.30
2017,08,06,11,48,23.30
2017,08,06,11,49,23.30
2017,08,06,11,50,23.30
2017,08,06,11,51,23.30
2017,08,06,11,52,23.30
2017,08,06,11,53,23.30
2017,08,06,11,54,23.30
2017,08,06,11,55,23.40
2017,08,06,11,56,23.40
2017,08,06,11,57,23.50
2017,08,06,11,58,23.60
2017,08,06,11,59,23.60
2017,08,06,12,00,23.60
2017,08,06,12,01,23.60
2017,08,06,12,02,23.60
2017,08,06,12,03,23.60
2017,08,06,12,04,23.60
2017,08,06,12,05,23.60
2017,08,06,12,06,23.60
2017,08,06,12,07,23.70
2017,08,06,12,08,23.70
2017,08,06,12,09,23.70
2017,08,06,12,10,23.80
2017,08,06,12,11,23.80
2017,08,06,12,12,23.90
2017,08,06,12,13,23.90
2017,08,06,12,14,23.90
2017,08,06,12,15,23.90
2017,08,06,12,16,23.90
2017,08,06,12,17,24.00
2017,08,06,12,18,24.00
2017,08,06,12,19,23.90
2017,08,06,12,20,23.90
2017,08,06,12,21,23.80
2017,08,06,12,22,23.80
2017,08,06,12,23,23.80
2017,08,06,12,24,23.90
2017,08,06,12,25,23.90
2017,08,06,12,26,23.90
2017,08,06,12,27,23.90
2017,08,06,12,28,24.00
2017,08,06,12,29,23.90
2017,08,06,12,30,23.90
2017,08,06,12,31,23.90
2017,08,06,12,32,24.00
2017,08,06,12,33,24.00
2017,08,06,12,34,24.10
2017,08,06,12,35,24.10
2017,08,06,12,36,24.10
2017,08,06,12,37,24.20
2017,08,06,12,38,24.20
2017,08,06,12,39,24.30
2017,08,06,12,40,24.30
2017,08,06,12,41,24.40
2017,08,06,12,42,24.40
2017,08,06,12,43,24.40
2017,08,06,12,44,24.50
2017,08,06,12,45,24.50
2017,08,06,12,46,24.50
2017,08,06,12,47,24.40
2017,08,06,12,48,24.50
2017,08,06,12,49,24.50
2017,08,06,12,50,24.50
2017,08,06,12,51,24.60
2017,08,06,12,52,24.60
2017,08,06,12,53,24.60
2017,08,06,12,54,24.70
2017,08,06,12,55,24.70
2017,08,06,12,56,24.70
2017,08,06,12,57,24.80
2017,08,06,12,58,24.70
2017,08,06,12,59,24.70
2017,08,06,13,00,24.70
2017,08,06,13,01,24.70
2017,08,06,13,02,24.70
2017,08,06,13,03,24.70
2017,08,06,13,04,24.70
2017,08,06,13,05,24.70
2017,08,06,13,06,24.70
2017,08,06,13,07,24.70
2017,08,06,13,08,24.70
2017,08,06,13,09,24.70
2017,08,06,13,10,24.70
2017,08,06,13,11,24.80
2017,08,06,13,12,24.80
2017,08,06,13,13,24.80
2017,08,06,13,14,24.90
2017,08,06,13,15,24.80
2017,08,06,13,16,24.80
2017,08,06,13,17,24.70
2017,08,06,13,18,24.60
2017,08,06,13,19,24.60
2017,08,06,13,20,24.60
2017,08,06,13,21,24.70
2017,08,06,13,22,24.70
2017,08,06,13,23,24.80
2017,08,06,13,24,24.80
2017,08,06,13,25,24.90
2017,08,06,13,26,24.90
2017,08,06,13,27,24.90
2017,08,06,13,28,24.80
2017,08,06,13,29,24.80
2017,08,06,13,30,24.90
2017,08,06,13,31,24.90
2017,08,06,13,32,24.90
2017,08,06,13,33,25.00
2017,08,06,13,34,25.00
2017,08,06,13,35,25.10
2017,08,06,13,36,25.10
2017,08,06,13,37,25.20
2017,08,06,13,38,25.20
2017,08,06,13,39,25.30
2017,08,06,13,40,25.30
2017,08,06,13,41,25.30
2017,08,06,13,42,25.30
2017,08,06,13,43,25.40
2017,08,06,13,44,25.40
2017,08,06,13,45,25.50
2017,08,06,13,46,25.50
2017,08,06,13,47,25.50
2017,08,06,13,48,25.50
2017,08,06,13,49,25.50
2017,08,06,13,50,25.50
2017,08,06,13,51,25.50
2017,08,06,13,52,25.50
2017,08,06,13,53,25.50
2017,08,06,13,54,25.60
2017,08,06,13,55,25.70
2017,08,06,13,56,25.70
2017,08,06,13,57,25.80
2017,08,06,13,58,25.80
2017,08,06,13,59,25.80
2017,08,06,14,00,25.80
2017,08,06,14,01,25.80
2017,08,06,14,02,25.80
2017,08,06,14,03,25.80
2017,08,06,14,04,25.80
2017,08,06,14,05,25.80
2017,08,06,14,06,25.80
2017,08,06,14,07,25.80
2017,08,06,14,08,25.80
2017,08,06,14,09,25.70
2017,08,06,14,10,25.80
2017,08,06,14,11,25.80
2017,08,06,14,12,25.80
2017,08,06,14,13,25.80
2017,08,06,14,14,25.80
2017,08,06,14,15,25.80
2017,08,06,14,16,25.70
2017,08,06,14,17,25.70
2017,08,06,14,18,25.70
2017,08,06,14,19,25.80
2017,08,06,14,20,25.80
2017,08,06,14,21,25.90
2017,08,06,14,22,26.10
2017,08,06,14,23,26.10
2017,08,06,14,24,26.20
2017,08,06,14,25,26.20
2017,08,06,14,26,26.20
2017,08,06,14,27,26.20
2017,08,06,14,28,26.20
2017,08,06,14,29,26.20
2017,08,06,14,30,26.20
2017,08,06,14,31,26.10
2017,08,06,14,32,26.10
2017,08,06,14,33,26.10
2017,08,06,14,34,26.10
2017,08,06,14,35,26.10
2017,08,06,14,36,26.10
2017,08,06,14,37,26.10
2017,08,06,14,38,26.20
2017,08,06,14,39,26.30
2017,08,06,14,40,26.30
2017,08,06,14,41,26.40
2017,08,06,14,42,26.40
2017,08,06,14,43,26.40
2017,08,06,14,44,26.50
2017,08,06,14,45,26.40
2017,08,06,14,46,26.50
2017,08,06,14,47,26.50
2017,08,06,14,48,26.60
2017,08,06,14,49,26.60
2017,08,06,14,50,26.70
2017,08,06,14,51,26.80
2017,08,06,14,52,26.80
2017,08,06,14,53,26.90
2017,08,06,14,54,27.00
2017,08,06,14,55,27.10
2017,08,06,14,56,27.10
2017,08,06,14,57,27.20
2017,08,06,14,58,27.20
2017,08,06,14,59,27.20
2017,08,06,15,00,27.20
2017,08,06,15,01,27.30
2017,08,06,15,02,27.20
2017,08,06,15,03,27.20
2017,08,06,15,04,27.20
2017,08,06,15,05,27.20
2017,08,06,15,06,27.10
2017,08,06,15,07,27.10
2017,08,06,15,08,27.10
2017,08,06,15,09,27.00
2017,08,06,15,10,27.00
2017,08,06,15,11,26.90
2017,08,06,15,12,26.90
2017,08,06,15,13,27.00
2017,08,06,15,14,27.00
2017,08,06,15,15,27.10
2017,08,06,15,16,27.10
2017,08,06,15,17,27.20
2017,08,06,15,18,27.20
2017,08,06,15,19,27.20
2017,08,06,15,20,27.20
2017,08,06,15,21,27.30
2017,08,06,15,22,27.30
2017,08,06,15,23,27.30
2017,08,06,15,24,27.30
2017,08,06,15,25,27.20
2017,08,06,15,26,27.20
2017,08,06,15,27,27.20
2017,08,06,15,28,27.20
2017,08,06,15,29,27.20
2017,08,06,15,30,27.20
2017,08,06,15,31,27.20
2017,08,06,15,32,27.20
2017,08,06,15,33,27.20
2017,08,06,15,34,27.20
2017,08,06,15,35,27.20
2017,08,06,15,36,27.20
2017,08,06,15,37,27.20
2017,08,06,15,38,27.20
2017,08,06,15,39,27.30
2017,08,06,15,40,27.30
2017,08,06,15,41,27.30
2017,08,06,15,42,27.30
2017,08,06,15,43,27.30
2017,08,06,15,44,27.30
2017,08,06,15,45,27.20
2017,08,06,15,46,27.20
2017,08,06,15,47,27.20
2017,08,06,15,48,27.20
2017,08,06,15,49,27.20
2017,08,06,15,50,27.20
2017,08,06,15,51,27.20
2017,08,06,15,52,27.20
2017,08,06,15,53,27.20
2017,08,06,15,54,27.20
2017,08,06,15,55,27.30
2017,08,06,15,56,27.30
2017,08,06,15,57,27.40
2017,08,06,15,58,27.40
2017,08,06,15,59,27.40
2017,08,06,16,00,27.40
2017,08,06,16,01,27.40
2017,08,06,16,02,27.40
2017,08,06,16,03,27.40
2017,08,06,16,04,27.40
2017,08,06,16,05,27.50
2017,08,06,16,06,27.50
2017,08,06,16,07,27.60
2017,08,06,16,08,27.60
2017,08,06,16,09,27.70
2017,08,06,16,10,27.70
2017,08,06,16,11,27.70
2017,08,06,16,12,27.70
2017,08,06,16,13,27.70
2017,08,06,16,14,27.70
2017,08,06,16,15,27.70
2017,08,06,16,16,27.70
2017,08,06,16,17,27.70
2017,08,06,16,18,27.70
2017,08,06,16,19,27.70
2017,08,06,16,20,27.70
2017,08,06,16,21,27.70
2017,08,06,16,22,27.70
2017,08,06,16,23,27.70
2017,08,06,16,24,27.80
2017,08,06,16,25,27.80
2017,08,06,16,26,27.80
2017,08,06,16,27,27.70
2017,08,06,16,28,27.70
2017,08,06,16,29,27.70
2017,08,06,16,30,27.70
2017,08,06,16,31,27.70
2017,08,06,16,32,27.80
2017,08,06,16,33,27.80
2017,08,06,16,34,27.80
2017,08,06,16,35,27.80
2017,08,06,16,36,27.80
2017,08,06,16,37,27.80
2017,08,06,16,38,27.70
2017,08,06,16,39,27.70
2017,08,06,16,40,27.70
2017,08,06,16,41,27.70
2017,08,06,16,42,27.60
2017,08,06,16,43,27.60
2017,08,06,16,44,27.60
2017,08,06,16,45,27.60
2017,08,06,16,46,27.60
2017,08,06,16,47,27.70
2017,08,06,16,48,27.70
2017,08,06,16,49,27.70
2017,08,06,16,50,27.80
2017,08,06,16,51,27.80
2017,08,06,16,52,27.80
2017,08,06,16,53,27.80
2017,08,06,16,54,27.80
2017,08,06,16,55,27.80
2017,08,06,16,56,27.80
2017,08,06,16,57,27.90
2017,08,06,16,58,27.90
2017,08,06,16,59,27.90
2017,08,06,17,00,27.90
2017,08,06,17,01,27.90
2017,08,06,17,02,27.90
2017,08,06,17,03,27.90
2017,08,06,17,04,27.90
2017,08,06,17,05,27.90
2017,08,06,17,06,27.90
2017,08,06,17,07,27.90
2017,08,06,17,08,27.90
2017,08,06,17,09,27.90
2017,08,06,17,10,27.90
2017,08,06,17,11,27.90
2017,08,06,17,12,27.90
2017,08,06,17,13,27.90
2017,08,06,17,14,27.90
2017,08,06,17,15,27.90
2017,08,06,17,16,27.90
2017,08,06,17,17,27.90
2017,08,06,17,18,27.90
2017,08,06,17,19,27.90